Rochester, NY

10:01 PM EDT on August 22, 2019 (GMT -0400)
Greater Rochester International

Weather History for KROC - July, 2019

Change the Weather History Date:

Monday, July 22, 2019

  Actual Average Record
Temperature  
Mean Temperature 69 °F 71 °F  
Max Temperature 72 °F 81 °F 97 °F (1955)
Min Temperature 66 °F 61 °F 46 °F (1970)
Degree Days  
Heating Degree Days 0 0  
Month to date heating degree days 0 6  
Since 1 June heating degree days 48 74  
Since 1 July heating degree days 0 6  
Cooling Degree Days 4 6  
Month to date cooling degree days 212 132  
Year to date cooling degree days 305 268  
Since 1 June cooling degree days 295 238  
Growing Degree Days 19 (Base 50)    
Moisture  
Dew Point 62 °F    
Average Humidity 80    
Maximum Humidity 93    
Minimum Humidity 66    
Precipitation  
Precipitation 0.12 in 0.11 in 2.15 in (1947)
Month to date precipitation 2.63 2.32  
Year to date precipitation 19.10 18.12  
Snow  
Snow 0.00 in 0.00 in 0.00 in ()
Month to date snowfall 0.0 0.0  
Since 1 June snowfall 0.0 0.0  
Since 1 July snowfall 0.0 0.0  
Snow Depth 0.00 in    
Sea Level Pressure  
Sea Level Pressure 29.89 in    
Wind  
Wind Speed 3 mph (WSW)    
Max Wind Speed 8 mph    
Max Gust Speed 13 mph    
Visibility 9 miles    
Events Rain    
T = Trace of Precipitation, MM = Missing Value Source: NWS Daily Summary

Daily Weather History Graph

Daily Weather History Graph

Search for Another Location

Airport or City:

Astronomy

Jul. 22, 2019 Rise Set
Actual Time 5:50 AM EDT 8:42 PM EDT
Civil Twilight 5:17 AM EDT 9:16 PM EDT
Nautical Twilight 4:34 AM EDT 9:58 PM EDT
Astronomical Twilight 3:45 AM EDT 10:47 PM EDT
Moon 11:54 PM EDT (7/22) 11:13 AM EDT (7/22)
Length of Visible Light 15h 58m
Length of Day
14h 51m
Waning Gibbous, 72% of the Moon is Illuminated
Jul 22
Waning Gibbous
Jul 24
Last Quarter
Jul 31
New
Aug 7
First Quarter
Aug 15
Full

Hourly Weather History & Observations

Time (EDT) Temp. Dew Point Humidity Pressure Visibility Wind Dir Wind Speed Gust Speed Precip Events Conditions
12:54 AM 66.9 °F 61.0 °F 81% 29.91 in 10.0 mi WSW 5.8 mph - N/A   Mostly Cloudy
1:54 AM 68.0 °F 62.1 °F 81% 29.91 in 10.0 mi SSW 4.6 mph - N/A   Overcast
2:54 AM 70.0 °F 61.0 °F 73% 29.91 in 10.0 mi Calm Calm - N/A   Mostly Cloudy
3:54 AM 70.0 °F 62.1 °F 76% 29.89 in 10.0 mi Calm Calm - N/A   Overcast
4:54 AM 69.1 °F 62.1 °F 78% 29.86 in 10.0 mi Calm Calm - N/A   Overcast
5:54 AM 66.9 °F 63.0 °F 87% 29.87 in 10.0 mi WSW 5.8 mph - 0.00 in Rain Light Rain
6:47 AM 66.9 °F 63.0 °F 87% 29.90 in 1.8 mi WNW 4.6 mph - 0.03 in Rain Heavy Rain
6:54 AM 66.9 °F 63.0 °F 87% 29.91 in 3.0 mi West 4.6 mph - 0.05 in Rain Light Rain
7:54 AM 66.9 °F 63.0 °F 87% 29.92 in 10.0 mi Calm Calm - 0.02 in Rain Light Rain
8:54 AM 66.9 °F 64.0 °F 90% 29.92 in 9.0 mi SW 4.6 mph - 0.02 in Rain Light Rain
9:54 AM 66.9 °F 62.1 °F 84% 29.91 in 10.0 mi South 5.8 mph - 0.02 in Rain Light Rain
10:54 AM 66.9 °F 62.1 °F 84% 29.91 in 10.0 mi Calm Calm - 0.01 in Rain Light Rain
11:54 AM 66.9 °F 61.0 °F 81% 29.91 in 10.0 mi South 4.6 mph - 0.00 in   Overcast
12:54 PM 66.9 °F 63.0 °F 87% 29.91 in 10.0 mi SSE 3.5 mph - 0.00 in Rain Light Rain
1:54 PM 68.0 °F 63.0 °F 84% 29.89 in 10.0 mi Calm Calm - 0.00 in Rain Light Rain
2:54 PM 69.1 °F 63.0 °F 81% 29.89 in 10.0 mi SSW 3.5 mph - 0.00 in   Overcast
3:54 PM 70.0 °F 62.1 °F 76% 29.87 in 10.0 mi Calm Calm - N/A   Overcast
4:54 PM 71.1 °F 62.1 °F 73% 29.85 in 10.0 mi NNW 4.6 mph - N/A   Overcast
5:54 PM 71.1 °F 60.1 °F 68% 29.85 in 10.0 mi NNW 4.6 mph - N/A   Overcast
6:54 PM 71.1 °F 59.0 °F 66% 29.85 in 10.0 mi NNW 5.8 mph - N/A   Overcast
7:54 PM 71.1 °F 61.0 °F 70% 29.87 in 10.0 mi ENE 6.9 mph - N/A   Mostly Cloudy
8:54 PM 70.0 °F 62.1 °F 76% 29.88 in 10.0 mi NNE 3.5 mph - N/A   Mostly Cloudy
9:54 PM 68.0 °F 63.0 °F 84% 29.89 in 10.0 mi SE 3.5 mph - N/A   Mostly Cloudy
10:54 PM 66.0 °F 63.0 °F 90% 29.89 in 10.0 mi Calm Calm - N/A   Mostly Cloudy
11:54 PM 66.0 °F 63.0 °F 90% 29.89 in 10.0 mi NW 3.5 mph - N/A   Mostly Cloudy